User: anonymous   Login
Location: Kelshall
(52.0000°N, 0.0500°W)
Time: 04:57:43
(UTC+00:00)
Language:

MOS 1-B Rocket - Orbit

View from above orbital plane
View from above orbital plane
View from above satellite
View from above satellite

Ground track
Ground track

The orbit data is extracted from the following two-line orbital elements,

1 20491U 90013D   20333.59190417 -.00000346 +00000-0 -57965-3 0  9996
2 20491 099.0433 205.3993 0467677 233.2343 122.4973 13.03559903464969
Epoch (UTC): 28 November 2020 14:12:20
Eccentricity: 0.0467677
inclination: 99.0433°
perigee height: 891 km
apogee height: 1605 km
right ascension of ascending node: 205.3993°
argument of perigee: 233.2343°
revolutions per day: 13.03559903
mean anomaly at epoch: 122.4973°
orbit number at epoch: 46496

The dashed part of the orbit path shows where the satellite is in the earth's shadow,  

DLR